Port Huron, MI

4:28 AM EDT on June 26, 2017 (GMT -0400)
Saint Clair County International

Weather History for KPHN - November, 2012

Change the Weather History Date:

Friday, November 2, 2012

  Actual Average (KMTC) Record (KMTC)
Temperature  
Mean Temperature 38 °F -  
Max Temperature 41 °F 55 °F 70 °F (1952)
Min Temperature 35 °F 41 °F 22 °F (1951)
Degree Days  
Heating Degree Days 27    
Moisture  
Dew Point 28 °F    
Average Humidity 69    
Maximum Humidity 81    
Minimum Humidity 56    
Precipitation  
Precipitation 0.00 in - - ()
Sea Level Pressure  
Sea Level Pressure 29.89 in    
Wind  
Wind Speed 9 mph (NW)    
Max Wind Speed 18 mph    
Max Gust Speed 26 mph    
Visibility 10 miles    
Events      
Averages and records for this station are not official NWS values.
T = Trace of Precipitation, MM = Missing Value Source: NWS Daily Summary

Daily Weather History Graph

Daily Weather History Graph

Search for Another Location

Airport or City:

Trip Planner

Search our weather history database for the weather conditions in past years. The results will help you decide how hot, cold, wet, or windy it might be!

Date:

Astronomy

Nov. 02, 2012 Rise Set
Actual Time 8:06 AM EDT 6:20 PM EDT
Civil Twilight 7:36 AM EDT 6:49 PM EDT
Nautical Twilight 7:03 AM EDT 7:23 PM EDT
Astronomical Twilight 6:30 AM EDT 7:56 PM EDT
Moon 9:03 PM EDT (11/2) 11:28 AM EDT (11/2)
Length of Visible Light 11h 13m
Length of Day
10h 14m
Waning Gibbous, 87% of the Moon is Illuminated
Nov 2
Waning Gibbous
Nov 6
Last Quarter
Nov 13
New
Nov 20
First Quarter
Nov 28
Full

Hourly Weather History & Observations

Time (EDT) Temp. Windchill Dew Point Humidity Pressure Visibility Wind Dir Wind Speed Gust Speed Precip Events Conditions
12:16 AM 39.2 °F 37.0 °F 28.4 °F 65% 29.74 in 10.0 mi West 3.5 mph - N/A   Overcast
12:36 AM 39.2 °F 34.2 °F 30.2 °F 70% 29.74 in 10.0 mi WNW 6.9 mph - N/A   Overcast
12:56 AM 39.2 °F 32.0 °F 32.0 °F 75% 29.74 in 10.0 mi NW 11.5 mph 18.4 mph N/A   Drizzle
1:16 AM 39.2 °F 34.2 °F 32.0 °F 75% 29.74 in 10.0 mi WNW 6.9 mph - N/A   Overcast
1:36 AM 39.2 °F 30.8 °F 32.0 °F 75% 29.75 in 10.0 mi NW 15.0 mph 20.7 mph N/A   Overcast
1:56 AM 39.2 °F 35.9 °F 32.0 °F 75% 29.74 in 10.0 mi NW 4.6 mph - N/A   Overcast
2:16 AM 39.2 °F 35.0 °F 32.0 °F 75% 29.74 in 10.0 mi NW 5.8 mph - N/A   Overcast
2:36 AM 39.2 °F 33.0 °F 30.2 °F 70% 29.75 in 10.0 mi NW 9.2 mph 18.4 mph N/A   Overcast
2:56 AM 39.2 °F 33.0 °F 30.2 °F 70% 29.75 in 10.0 mi NW 9.2 mph - N/A   Overcast
3:16 AM 39.2 °F 33.6 °F 30.2 °F 70% 29.75 in 10.0 mi WNW 8.1 mph - N/A   Overcast
3:36 AM 39.2 °F 32.5 °F 32.0 °F 75% 29.76 in 10.0 mi WNW 10.4 mph 18.4 mph N/A   Overcast
3:56 AM 37.4 °F 29.3 °F 32.0 °F 81% 29.76 in 10.0 mi WNW 12.7 mph 17.3 mph N/A   Overcast
4:16 AM 37.4 °F 29.8 °F 30.2 °F 75% 29.76 in 10.0 mi WNW 11.5 mph 17.3 mph N/A   Overcast
4:36 AM 37.4 °F 31.4 °F 30.2 °F 75% 29.76 in 10.0 mi WNW 8.1 mph - N/A   Overcast
4:56 AM 37.4 °F 30.8 °F 30.2 °F 75% 29.77 in 10.0 mi WNW 9.2 mph 17.3 mph N/A   Overcast
5:16 AM 37.4 °F 30.8 °F 30.2 °F 75% 29.77 in 10.0 mi NW 9.2 mph - N/A   Overcast
5:36 AM 37.4 °F 30.8 °F 30.2 °F 75% 29.77 in 10.0 mi NW 9.2 mph 16.1 mph N/A   Overcast
5:56 AM 37.4 °F 30.3 °F 30.2 °F 75% 29.78 in 10.0 mi NNW 10.4 mph 20.7 mph N/A   Drizzle
6:16 AM 35.6 °F 28.6 °F 30.2 °F 81% 29.79 in 10.0 mi NW 9.2 mph - N/A   Overcast
6:36 AM 35.6 °F 29.2 °F 30.2 °F 81% 29.79 in 10.0 mi NW 8.1 mph - N/A   Overcast
6:56 AM 35.6 °F 28.0 °F 28.4 °F 75% 29.80 in 10.0 mi NW 10.4 mph 16.1 mph N/A   Overcast
7:16 AM 35.6 °F 29.2 °F 30.2 °F 81% 29.81 in 10.0 mi NNW 8.1 mph - N/A   Overcast
7:36 AM 35.6 °F 27.1 °F 28.4 °F 75% 29.82 in 10.0 mi NW 12.7 mph 16.1 mph N/A   Overcast
7:56 AM 35.6 °F 28.6 °F 28.4 °F 75% 29.82 in 10.0 mi WNW 9.2 mph 16.1 mph N/A   Overcast
8:16 AM 35.6 °F 28.0 °F 28.4 °F 75% 29.82 in 10.0 mi NW 10.4 mph - N/A   Overcast
8:36 AM 35.6 °F 27.5 °F 26.6 °F 70% 29.83 in 10.0 mi NW 11.5 mph 24.2 mph N/A   Overcast
8:56 AM 35.6 °F 27.5 °F 26.6 °F 70% 29.84 in 10.0 mi NNW 11.5 mph - N/A   Overcast
9:16 AM 35.6 °F 27.5 °F 26.6 °F 70% 29.86 in 10.0 mi NW 11.5 mph 21.9 mph N/A   Overcast
9:36 AM 35.6 °F 28.0 °F 26.6 °F 70% 29.86 in 10.0 mi NW 10.4 mph 19.6 mph N/A   Overcast
9:56 AM 37.4 °F 28.5 °F 26.6 °F 65% 29.86 in 10.0 mi NW 15.0 mph 23.0 mph N/A   Overcast
10:16 AM 37.4 °F 28.2 °F 26.6 °F 65% 29.87 in 10.0 mi NW 16.1 mph 23.0 mph N/A   Overcast
10:36 AM 37.4 °F 28.9 °F 26.6 °F 65% 29.87 in 10.0 mi NW 13.8 mph 24.2 mph N/A   Mostly Cloudy
10:56 AM 37.4 °F 27.5 °F 26.6 °F 65% 29.88 in 10.0 mi NW 18.4 mph 25.3 mph N/A   Mostly Cloudy
11:16 AM 37.4 °F 30.3 °F 26.6 °F 65% 29.89 in 10.0 mi NW 10.4 mph 21.9 mph N/A   Scattered Clouds
11:36 AM 39.2 °F 30.8 °F 26.6 °F 61% 29.89 in 10.0 mi NW 15.0 mph 19.6 mph N/A   Scattered Clouds
11:56 AM 39.2 °F 32.5 °F 26.6 °F 61% 29.90 in 10.0 mi NW 10.4 mph 24.2 mph N/A   Scattered Clouds
12:16 PM 41.0 °F 32.5 °F 26.6 °F 57% 29.90 in 10.0 mi NW 17.3 mph 25.3 mph N/A   Mostly Cloudy
12:36 PM 41.0 °F 32.2 °F 26.6 °F 57% 29.91 in 10.0 mi NW 18.4 mph 25.3 mph N/A   Overcast
12:56 PM 41.0 °F 34.7 °F 26.6 °F 57% 29.91 in 10.0 mi NNW 10.4 mph 26.5 mph N/A   Mostly Cloudy
1:16 PM 39.2 °F 30.5 °F 26.6 °F 61% 29.91 in 10.0 mi NW 16.1 mph 24.2 mph N/A   Mostly Cloudy
1:36 PM 41.0 °F 33.1 °F 26.6 °F 57% 29.92 in 10.0 mi WNW 15.0 mph 23.0 mph N/A   Overcast
1:56 PM 41.0 °F 34.3 °F 26.6 °F 57% 29.92 in 10.0 mi NW 11.5 mph 25.3 mph N/A   Overcast
2:16 PM 41.0 °F 34.3 °F 26.6 °F 57% 29.92 in 10.0 mi NW 11.5 mph 19.6 mph N/A   Mostly Cloudy
2:36 PM 39.2 °F 29.8 °F 26.6 °F 61% 29.93 in 10.0 mi NW 18.4 mph 24.2 mph N/A   Overcast
2:56 PM 39.2 °F 31.2 °F 26.6 °F 61% 29.93 in 10.0 mi NW 13.8 mph 25.3 mph N/A   Overcast
3:16 PM 39.2 °F 30.8 °F 24.8 °F 56% 29.94 in 10.0 mi NW 15.0 mph 23.0 mph N/A   Overcast
3:36 PM 41.0 °F 34.3 °F 26.6 °F 57% 29.94 in 10.0 mi NW 11.5 mph 21.9 mph N/A   Overcast
3:56 PM 39.2 °F 32.0 °F 26.6 °F 61% 29.95 in 10.0 mi NW 11.5 mph 20.7 mph N/A   Overcast
4:16 PM 39.2 °F 31.6 °F 26.6 °F 61% 29.96 in 10.0 mi NW 12.7 mph 18.4 mph N/A   Overcast
4:36 PM 39.2 °F 33.0 °F 26.6 °F 61% 29.97 in 10.0 mi NW 9.2 mph 16.1 mph N/A   Overcast
4:56 PM 39.2 °F 33.0 °F 26.6 °F 61% 29.97 in 10.0 mi NW 9.2 mph 18.4 mph N/A   Overcast
5:16 PM 37.4 °F 29.8 °F 28.4 °F 70% 29.97 in 10.0 mi WNW 11.5 mph 19.6 mph N/A   Overcast
5:36 PM 37.4 °F 32.1 °F 28.4 °F 70% 29.98 in 10.0 mi NNW 6.9 mph 18.4 mph N/A   Overcast
5:56 PM 37.4 °F 30.3 °F 28.4 °F 70% 29.98 in 10.0 mi NNW 10.4 mph 16.1 mph N/A   Overcast
6:16 PM 37.4 °F 31.4 °F 28.4 °F 70% 29.99 in 10.0 mi NW 8.1 mph - N/A   Overcast
6:36 PM 37.4 °F 33.8 °F 28.4 °F 70% 29.99 in 10.0 mi WNW 4.6 mph - N/A   Overcast
6:56 PM 37.4 °F 31.4 °F 28.4 °F 70% 30.00 in 10.0 mi NW 8.1 mph - N/A   Overcast
7:16 PM 37.4 °F 32.8 °F 28.4 °F 70% 30.00 in 10.0 mi NW 5.8 mph - N/A   Overcast
7:36 PM 37.4 °F 34.9 °F 28.4 °F 70% 30.01 in 10.0 mi NW 3.5 mph - N/A   Overcast
7:56 PM 37.4 °F 33.8 °F 28.4 °F 70% 30.01 in 10.0 mi NW 4.6 mph - N/A   Overcast
8:16 PM 37.4 °F 32.8 °F 28.4 °F 70% 30.02 in 10.0 mi NW 5.8 mph - N/A   Overcast
8:36 PM 37.4 °F 33.8 °F 28.4 °F 70% 30.02 in 10.0 mi NW 4.6 mph - N/A   Overcast
8:56 PM 37.4 °F 32.8 °F 28.4 °F 70% 30.02 in 10.0 mi NW 5.8 mph - N/A   Overcast
9:16 PM 37.4 °F 33.8 °F 28.4 °F 70% 30.02 in 10.0 mi NW 4.6 mph - N/A   Overcast
9:36 PM 37.4 °F 33.8 °F 28.4 °F 70% 30.02 in 10.0 mi NW 4.6 mph - N/A   Overcast
9:56 PM 35.6 °F 29.9 °F 28.4 °F 75% 30.02 in 10.0 mi WNW 6.9 mph - N/A   Mostly Cloudy
10:16 PM 35.6 °F 28.6 °F 28.4 °F 75% 30.02 in 10.0 mi WNW 9.2 mph - N/A   Overcast
10:36 PM 37.4 °F 30.8 °F 28.4 °F 70% 30.03 in 10.0 mi WNW 9.2 mph - N/A   Overcast
10:56 PM 35.6 °F 29.9 °F 28.4 °F 75% 30.03 in 10.0 mi WNW 6.9 mph - N/A   Overcast
11:16 PM 37.4 °F 31.4 °F 28.4 °F 70% 30.03 in 10.0 mi WNW 8.1 mph - N/A   Overcast
11:36 PM 35.6 °F 29.2 °F 28.4 °F 75% 30.04 in 10.0 mi WNW 8.1 mph - N/A   Overcast
11:56 PM 35.6 °F 28.0 °F 28.4 °F 75% 30.04 in 10.0 mi NW 10.4 mph 16.1 mph N/A   Overcast